PDA1204 LATI-UKWW

Flight info

Callsign PDA1204
Flight time 1h 36m
Altitude 35000
Route RINAV DCT ETIDA DCT RUSAG DCT BUKOV DCT KOROP
Aircraft A321/M-SDE3FGHIJ4RWY/LB1

Departure

Time 2026-05-07 12:56
Airport Tirana International Airport Mother Teresa (LATI)

Arrival

Time 2026-05-07 14:32
Airport Vinnytsia/Gavyryshivka International Airport (UKWW)
Time Latitude Longitude Altitude Speed Heading
2026-05-07 12:36 41.42300 19.71467 120 ft 0 kts 261°
2026-05-07 12:47 41.42301 19.71473 120 ft 0 kts 261°
2026-05-07 12:49 41.42303 19.71492 118 ft 3 kts 261°
2026-05-07 12:50 41.42303 19.71517 118 ft 3 kts 308°
2026-05-07 12:50 41.42290 19.71534 118 ft 3 kts 342°
2026-05-07 12:50 41.42288 19.71536 118 ft 0 kts 350°
2026-05-07 12:52 41.42300 19.71533 120 ft 2 kts 351°
2026-05-07 12:53 41.42339 19.71527 116 ft 17 kts 354°
2026-05-07 12:53 41.42476 19.71511 115 ft 18 kts 355°
2026-05-07 12:53 41.42602 19.71492 115 ft 19 kts 353°
2026-05-07 12:54 41.42663 19.71547 118 ft 8 kts 89°
2026-05-07 12:54 41.42672 19.71639 118 ft 15 kts 82°
2026-05-07 12:54 41.42685 19.71802 115 ft 19 kts 86°
2026-05-07 12:54 41.42615 19.71904 116 ft 17 kts 169°
2026-05-07 12:55 41.42598 19.71906 116 ft 3 kts 173°
2026-05-07 12:55 41.42325 19.71944 118 ft 75 kts 174°
2026-05-07 12:55 41.41583 19.72042 126 ft 135 kts 174°
2026-05-07 12:55 41.40506 19.72183 361 ft 161 kts 173°
2026-05-07 12:56 41.39412 19.72311 1121 ft 157 kts 175°
2026-05-07 12:56 41.38289 19.72454 1502 ft 172 kts 174°
2026-05-07 12:56 41.37021 19.72626 1716 ft 194 kts 174°
2026-05-07 12:56 41.35618 19.72814 1856 ft 218 kts 174°
2026-05-07 12:57 41.34017 19.73029 2130 ft 242 kts 174°
2026-05-07 12:57 41.32312 19.73257 2814 ft 249 kts 174°
2026-05-07 12:57 41.30565 19.73490 3516 ft 254 kts 175°
2026-05-07 12:57 41.28806 19.73725 4315 ft 255 kts 175°
2026-05-07 12:58 41.27020 19.73962 5086 ft 259 kts 176°
2026-05-07 12:58 41.25240 19.73723 5754 ft 261 kts 204°
2026-05-07 12:58 41.23743 19.72361 6446 ft 263 kts 227°
2026-05-07 12:58 41.22752 19.70316 7089 ft 268 kts 251°
2026-05-07 12:59 41.22547 19.67865 7835 ft 272 kts 276°
2026-05-07 12:59 41.23206 19.65499 8549 ft 279 kts 302°
2026-05-07 12:59 41.24657 19.63758 9276 ft 289 kts 330°
2026-05-07 12:59 41.26625 19.63093 9936 ft 300 kts 359°
2026-05-07 13:00 41.28735 19.63447 10339 ft 316 kts
2026-05-07 13:00 41.30983 19.63936 10481 ft 339 kts
2026-05-07 13:00 41.33383 19.64468 10613 ft 359 kts
2026-05-07 13:00 41.35528 19.64948 11025 ft 367 kts
2026-05-07 13:01 41.38057 19.65515 11614 ft 371 kts
2026-05-07 13:01 41.40591 19.66080 12218 ft 374 kts
2026-05-07 13:01 41.43177 19.66653 12918 ft 377 kts
2026-05-07 13:01 41.45771 19.67223 13597 ft 379 kts
2026-05-07 13:02 41.48389 19.67794 14190 ft 382 kts
2026-05-07 13:02 41.51024 19.68369 14747 ft 385 kts
2026-05-07 13:02 41.53685 19.68951 15299 ft 389 kts
2026-05-07 13:02 41.56366 19.69537 15861 ft 392 kts
2026-05-07 13:03 41.59067 19.70127 16440 ft 395 kts
2026-05-07 13:03 41.61795 19.70725 17009 ft 398 kts
2026-05-07 13:03 41.64537 19.71329 17568 ft 401 kts
2026-05-07 13:03 41.67298 19.71941 18136 ft 404 kts
2026-05-07 13:04 41.70086 19.72561 18639 ft 408 kts
2026-05-07 13:04 41.72903 19.73187 19056 ft 413 kts
2026-05-07 13:04 41.75744 19.73816 19546 ft 415 kts
2026-05-07 13:04 41.78606 19.74448 20037 ft 418 kts
2026-05-07 13:05 41.81485 19.75083 20467 ft 422 kts
2026-05-07 13:05 41.84394 19.75726 20910 ft 424 kts
2026-05-07 13:05 41.87314 19.76374 21380 ft 427 kts
2026-05-07 13:05 41.90254 19.77030 21822 ft 430 kts
2026-05-07 13:06 41.93223 19.77715 22253 ft 434 kts
2026-05-07 13:06 41.96093 19.78888 22678 ft 441 kts 19°
2026-05-07 13:06 41.98842 19.80787 23111 ft 447 kts 30°
2026-05-07 13:06 42.01326 19.83344 23560 ft 452 kts 41°
2026-05-07 13:07 42.03511 19.86424 23922 ft 455 kts 46°
2026-05-07 13:07 42.05645 19.89586 24281 ft 458 kts 46°
2026-05-07 13:07 42.07792 19.92776 24619 ft 460 kts 46°
2026-05-07 13:07 42.09946 19.95981 24959 ft 463 kts 46°
2026-05-07 13:08 42.12115 19.99207 25294 ft 466 kts 46°
2026-05-07 13:08 42.14297 20.02455 25622 ft 468 kts 47°
2026-05-07 13:08 42.16468 20.05689 25958 ft 470 kts 47°
2026-05-07 13:08 42.18668 20.08971 26295 ft 472 kts 47°
2026-05-07 13:09 42.20874 20.12266 26617 ft 474 kts 47°
2026-05-07 13:09 42.23073 20.15551 26953 ft 476 kts 47°
2026-05-07 13:09 42.25296 20.18879 27241 ft 479 kts 47°
2026-05-07 13:09 42.27531 20.22227 27536 ft 482 kts 47°
2026-05-07 13:10 42.29757 20.25572 27840 ft 484 kts 47°
2026-05-07 13:10 42.31996 20.28937 28146 ft 486 kts 47°
2026-05-07 13:10 42.34246 20.32317 28442 ft 488 kts 47°
2026-05-07 13:10 42.36521 20.35741 28755 ft 490 kts 47°
2026-05-07 13:11 42.38803 20.39182 29061 ft 493 kts 47°
2026-05-07 13:11 42.41094 20.42640 29347 ft 495 kts 47°
2026-05-07 13:11 42.43401 20.46122 29602 ft 498 kts 47°
2026-05-07 13:11 42.45686 20.49574 29978 ft 497 kts 48°
2026-05-07 13:12 42.47963 20.53025 30420 ft 494 kts 49°
2026-05-07 13:12 42.50248 20.56493 30810 ft 493 kts 49°
2026-05-07 13:12 42.52527 20.59954 31170 ft 491 kts 49°
2026-05-07 13:12 42.54800 20.63408 31536 ft 491 kts 49°
2026-05-07 13:13 42.57073 20.66862 31867 ft 490 kts 49°
2026-05-07 13:13 42.59346 20.70320 32228 ft 489 kts 49°
2026-05-07 13:13 42.61608 20.73763 32572 ft 488 kts 49°
2026-05-07 13:13 42.63843 20.77167 32923 ft 487 kts 49°
2026-05-07 13:14 42.66071 20.80566 33264 ft 486 kts 50°
2026-05-07 13:14 42.68310 20.83993 33651 ft 484 kts 50°
2026-05-07 13:14 42.70546 20.87423 33983 ft 483 kts 50°
2026-05-07 13:14 42.72770 20.90843 34293 ft 483 kts 50°
2026-05-07 13:15 42.74998 20.94274 34567 ft 482 kts 50°
2026-05-07 13:15 42.77220 20.97695 34809 ft 482 kts 50°
2026-05-07 13:15 42.79419 21.01081 35038 ft 482 kts 49°
2026-05-07 13:15 42.81640 21.04506 35122 ft 482 kts 49°
2026-05-07 13:16 42.86065 21.11337 35118 ft 480 kts 49°
2026-05-07 13:16 42.90482 21.18171 35109 ft 479 kts 49°
2026-05-07 13:17 42.94885 21.24999 35105 ft 479 kts 49°
2026-05-07 13:17 42.99248 21.31785 35104 ft 479 kts 49°
2026-05-07 13:18 43.03645 21.38636 35100 ft 479 kts 49°
2026-05-07 13:18 43.08040 21.45510 35100 ft 479 kts 49°
2026-05-07 13:19 43.12427 21.52381 35102 ft 480 kts 49°
2026-05-07 13:19 43.16826 21.59265 35097 ft 480 kts 49°
2026-05-07 13:20 43.21207 21.66153 35100 ft 479 kts 49°
2026-05-07 13:20 43.25555 21.73017 35096 ft 480 kts 49°
2026-05-07 13:21 43.29933 21.79929 35095 ft 480 kts 49°
2026-05-07 13:21 43.34318 21.86877 35095 ft 481 kts 49°
2026-05-07 13:22 43.38695 21.93836 35096 ft 481 kts 50°
2026-05-07 13:22 43.43074 22.00804 35106 ft 481 kts 49°
2026-05-07 13:23 43.47452 22.07792 35108 ft 481 kts 50°
2026-05-07 13:23 43.51793 22.14738 35108 ft 481 kts 50°
2026-05-07 13:24 43.56167 22.21747 35107 ft 481 kts 50°
2026-05-07 13:24 43.60532 22.28760 35101 ft 481 kts 50°
2026-05-07 13:25 43.64875 22.35779 35101 ft 481 kts 50°
2026-05-07 13:25 43.69616 22.42246 35099 ft 479 kts 35°
2026-05-07 13:26 43.75332 22.46969 35095 ft 478 kts 27°
2026-05-07 13:26 43.81103 22.51432 35095 ft 479 kts 28°
2026-05-07 13:27 43.86913 22.55954 35085 ft 478 kts 28°
2026-05-07 13:27 43.92728 22.60484 35084 ft 478 kts 28°
2026-05-07 13:28 43.97559 22.64252 35077 ft 479 kts 28°
2026-05-07 13:28 44.03366 22.68785 35079 ft 479 kts 28°
2026-05-07 13:29 44.09184 22.73330 35073 ft 480 kts 28°
2026-05-07 13:29 44.15007 22.77896 35071 ft 480 kts 28°
2026-05-07 13:30 44.20832 22.82472 35069 ft 481 kts 28°
2026-05-07 13:30 44.26660 22.87065 35072 ft 482 kts 28°
2026-05-07 13:31 44.32501 22.91674 35071 ft 482 kts 28°
2026-05-07 13:31 44.38341 22.96297 35073 ft 483 kts 28°
2026-05-07 13:32 44.44146 23.00903 35080 ft 483 kts 28°
2026-05-07 13:32 44.49993 23.05547 35081 ft 483 kts 28°
2026-05-07 13:33 44.55845 23.10214 35081 ft 483 kts 28°
2026-05-07 13:33 44.61695 23.14892 35090 ft 483 kts 28°
2026-05-07 13:34 44.70456 23.21913 35091 ft 483 kts 28°
2026-05-07 13:35 44.76296 23.26606 35094 ft 483 kts 28°
2026-05-07 13:35 44.82082 23.31267 35090 ft 482 kts 28°
2026-05-07 13:36 44.87893 23.35958 35088 ft 482 kts 28°
2026-05-07 13:36 44.93680 23.40642 35086 ft 481 kts 28°
2026-05-07 13:37 44.99481 23.45346 35081 ft 480 kts 27°
2026-05-07 13:37 45.05280 23.50059 35080 ft 481 kts 28°
2026-05-07 13:38 45.11083 23.54784 35089 ft 481 kts 27°
2026-05-07 13:38 45.16892 23.59524 35069 ft 483 kts 27°
2026-05-07 13:39 45.22710 23.64299 35070 ft 484 kts 28°
2026-05-07 13:39 45.28538 23.69095 35067 ft 484 kts 28°
2026-05-07 13:40 45.34375 23.73891 35072 ft 484 kts 27°
2026-05-07 13:40 45.40202 23.78688 35074 ft 484 kts 27°
2026-05-07 13:41 45.45986 23.83468 35073 ft 484 kts 27°
2026-05-07 13:41 45.51812 23.88291 35079 ft 483 kts 27°
2026-05-07 13:42 45.57616 23.93117 35066 ft 482 kts 27°
2026-05-07 13:42 45.63401 23.97933 35063 ft 481 kts 27°
2026-05-07 13:43 45.69178 24.02758 35057 ft 480 kts 27°
2026-05-07 13:43 45.74927 24.07582 35058 ft 478 kts 27°
2026-05-07 13:44 45.80659 24.12387 35056 ft 477 kts 27°
2026-05-07 13:44 45.86396 24.17194 35063 ft 477 kts 27°
2026-05-07 13:45 45.92081 24.21982 35053 ft 476 kts 27°
2026-05-07 13:45 45.97785 24.26809 35040 ft 475 kts 27°
2026-05-07 13:46 46.03506 24.31574 35035 ft 474 kts 27°
2026-05-07 13:46 46.09250 24.36254 35024 ft 473 kts 27°
2026-05-07 13:47 46.14976 24.40933 35020 ft 473 kts 27°
2026-05-07 13:47 46.20673 24.45649 35017 ft 472 kts 27°
2026-05-07 13:48 46.26370 24.50394 35011 ft 472 kts 27°
2026-05-07 13:48 46.32057 24.55133 35010 ft 472 kts 27°
2026-05-07 13:49 46.37709 24.59838 35016 ft 471 kts 28°
2026-05-07 13:49 46.43388 24.64574 35025 ft 470 kts 28°
2026-05-07 13:50 46.49048 24.69312 35021 ft 470 kts 28°
2026-05-07 13:50 46.54702 24.74060 35018 ft 469 kts 28°
2026-05-07 13:51 46.60352 24.78811 35017 ft 468 kts 28°
2026-05-07 13:51 46.65989 24.83568 35014 ft 468 kts 28°
2026-05-07 13:52 46.71618 24.88323 35010 ft 467 kts 28°
2026-05-07 13:52 46.77206 24.93061 35020 ft 466 kts 28°
2026-05-07 13:53 46.82812 24.97832 35024 ft 465 kts 28°
2026-05-07 13:53 46.88409 25.02596 35022 ft 464 kts 28°
2026-05-07 13:54 46.93992 25.07357 35028 ft 464 kts 28°
2026-05-07 13:54 46.99559 25.12133 35026 ft 464 kts 28°
2026-05-07 13:55 47.05100 25.16879 35022 ft 464 kts 28°
2026-05-07 13:55 47.10672 25.21661 35022 ft 464 kts 28°
2026-05-07 13:56 47.16241 25.26468 35021 ft 465 kts 27°
2026-05-07 13:56 47.21823 25.31302 35016 ft 465 kts 27°
2026-05-07 13:57 47.27408 25.36155 35020 ft 466 kts 27°
2026-05-07 13:57 47.32997 25.41003 35032 ft 466 kts 27°
2026-05-07 13:58 47.38553 25.45833 35031 ft 466 kts 27°
2026-05-07 13:58 47.44137 25.50711 35018 ft 465 kts 27°
2026-05-07 13:59 47.49714 25.55598 35020 ft 466 kts 27°
2026-05-07 13:59 47.55282 25.60478 35019 ft 465 kts 27°
2026-05-07 14:00 47.60833 25.65361 35010 ft 464 kts 27°
2026-05-07 14:00 47.66377 25.70253 35006 ft 463 kts 27°
2026-05-07 14:01 47.71915 25.75140 35011 ft 463 kts 27°
2026-05-07 14:01 47.77444 25.80043 34995 ft 463 kts 27°
2026-05-07 14:02 47.82926 25.84921 34993 ft 463 kts 27°
2026-05-07 14:02 47.88454 25.89844 34995 ft 463 kts 27°
2026-05-07 14:03 47.93959 25.94834 34991 ft 464 kts 32°
2026-05-07 14:03 47.98798 26.01301 34987 ft 469 kts 43°
2026-05-07 14:04 48.03353 26.08273 34983 ft 469 kts 43°
2026-05-07 14:04 48.07901 26.15224 34984 ft 469 kts 43°
2026-05-07 14:05 48.12459 26.22203 34981 ft 469 kts 43°
2026-05-07 14:05 48.16995 26.29173 34981 ft 469 kts 43°
2026-05-07 14:06 48.21548 26.36182 34985 ft 469 kts 43°
2026-05-07 14:06 48.26085 26.43194 34495 ft 472 kts 43°
2026-05-07 14:06 48.28412 26.46797 33230 ft 486 kts 43°
2026-05-07 14:07 48.30767 26.50446 32418 ft 486 kts 44°
2026-05-07 14:07 48.33106 26.54074 31641 ft 480 kts 44°
2026-05-07 14:07 48.35416 26.57661 31139 ft 475 kts 44°
2026-05-07 14:07 48.37681 26.61180 30570 ft 473 kts 44°
2026-05-07 14:08 48.39959 26.64727 30002 ft 471 kts 45°
2026-05-07 14:08 48.42231 26.68280 29385 ft 468 kts 45°
2026-05-07 14:08 48.44475 26.71796 28825 ft 463 kts 45°
2026-05-07 14:08 48.46700 26.75277 28267 ft 458 kts 45°
2026-05-07 14:09 48.48900 26.78725 27714 ft 454 kts 45°
2026-05-07 14:09 48.51077 26.82144 27164 ft 450 kts 45°
2026-05-07 14:09 48.53238 26.85540 26618 ft 446 kts 45°
2026-05-07 14:09 48.55349 26.88866 26094 ft 443 kts 45°
2026-05-07 14:10 48.57467 26.92206 25566 ft 439 kts 45°
2026-05-07 14:10 48.59569 26.95524 25051 ft 436 kts 45°
2026-05-07 14:10 48.61663 26.98829 24536 ft 432 kts 45°
2026-05-07 14:10 48.63736 27.02099 24057 ft 429 kts 45°
2026-05-07 14:11 48.65791 27.05342 23584 ft 426 kts 45°
2026-05-07 14:11 48.67833 27.08568 23054 ft 422 kts 46°
2026-05-07 14:11 48.69852 27.11767 22601 ft 418 kts 46°
2026-05-07 14:11 48.71851 27.14949 22141 ft 415 kts 46°
2026-05-07 14:12 48.73835 27.18113 21676 ft 412 kts 46°
2026-05-07 14:12 48.75802 27.21250 21227 ft 409 kts 46°
2026-05-07 14:12 48.77739 27.24339 20749 ft 406 kts 46°
2026-05-07 14:12 48.79643 27.27378 20283 ft 404 kts 46°
2026-05-07 14:13 48.81552 27.30427 19810 ft 402 kts 46°
2026-05-07 14:13 48.83462 27.33476 19334 ft 400 kts 46°
2026-05-07 14:13 48.85371 27.36531 18835 ft 399 kts 47°
2026-05-07 14:13 48.87282 27.39595 18342 ft 398 kts 47°
2026-05-07 14:14 48.89182 27.42644 17794 ft 396 kts 47°
2026-05-07 14:14 48.91062 27.45666 17296 ft 393 kts 47°
2026-05-07 14:14 48.92930 27.48678 16793 ft 390 kts 47°
2026-05-07 14:14 48.94782 27.51670 16297 ft 387 kts 47°
2026-05-07 14:15 48.96622 27.54647 15800 ft 384 kts 47°
2026-05-07 14:15 48.98454 27.57605 15308 ft 382 kts 47°
2026-05-07 14:15 49.00272 27.60538 14782 ft 380 kts 47°
2026-05-07 14:15 49.02113 27.63512 13824 ft 392 kts 47°
2026-05-07 14:16 49.03354 27.65518 13395 ft 393 kts 47°
2026-05-07 14:16 49.05197 27.68505 13130 ft 381 kts 47°
2026-05-07 14:16 49.06990 27.71414 12795 ft 372 kts 47°
2026-05-07 14:16 49.09279 27.75130 12541 ft 356 kts 47°
2026-05-07 14:17 49.10954 27.77854 12273 ft 348 kts 47°
2026-05-07 14:17 49.12048 27.79635 12110 ft 344 kts 47°
2026-05-07 14:17 49.13671 27.82288 11856 ft 341 kts 48°
2026-05-07 14:17 49.15087 27.85155 11582 ft 335 kts 65°
2026-05-07 14:18 49.15848 27.88415 11518 ft 319 kts 77°
2026-05-07 14:18 49.16428 27.91630 11446 ft 312 kts 77°
2026-05-07 14:18 49.17000 27.94831 11380 ft 312 kts 77°
2026-05-07 14:18 49.17567 27.98029 11250 ft 310 kts 77°
2026-05-07 14:19 49.18128 28.01204 11105 ft 309 kts 77°
2026-05-07 14:19 49.18691 28.04401 10628 ft 313 kts 77°
2026-05-07 14:19 49.19249 28.07557 10204 ft 302 kts 77°
2026-05-07 14:19 49.19792 28.10642 9806 ft 301 kts 77°
2026-05-07 14:20 49.20334 28.13736 9396 ft 301 kts 77°
2026-05-07 14:20 49.20871 28.16792 9010 ft 301 kts 78°
2026-05-07 14:20 49.21404 28.19830 8606 ft 290 kts 77°
2026-05-07 14:20 49.21929 28.22804 8241 ft 291 kts 78°
2026-05-07 14:21 49.22451 28.25776 7870 ft 288 kts 78°
2026-05-07 14:21 49.22966 28.28716 7493 ft 285 kts 79°
2026-05-07 14:21 49.23474 28.31617 7123 ft 279 kts 77°
2026-05-07 14:21 49.23972 28.34475 6766 ft 277 kts 78°
2026-05-07 14:22 49.24466 28.37322 6387 ft 273 kts 77°
2026-05-07 14:22 49.24937 28.40028 6053 ft 256 kts 80°
2026-05-07 14:22 49.25380 28.42586 5724 ft 249 kts 78°
2026-05-07 14:22 49.25816 28.45134 5402 ft 246 kts 80°
2026-05-07 14:23 49.26244 28.47616 5079 ft 236 kts 80°
2026-05-07 14:23 49.26660 28.49980 4986 ft 226 kts 79°
2026-05-07 14:23 49.27097 28.52301 4999 ft 226 kts 79°
2026-05-07 14:23 49.27573 28.54566 4989 ft 219 kts 67°
2026-05-07 14:24 49.28579 28.56208 5009 ft 214 kts 30°
2026-05-07 14:24 49.29994 28.56644 4995 ft 205 kts 350°
2026-05-07 14:24 49.31216 28.55746 4995 ft 193 kts 308°
2026-05-07 14:24 49.31876 28.54052 5007 ft 186 kts 285°
2026-05-07 14:25 49.32337 28.52228 4880 ft 182 kts 283°
2026-05-07 14:25 49.32621 28.50996 4630 ft 181 kts 283°
2026-05-07 14:25 49.33154 28.48561 4255 ft 181 kts 282°
2026-05-07 14:25 49.33550 28.46733 3973 ft 180 kts 282°
2026-05-07 14:26 49.33941 28.44920 3770 ft 176 kts 281°
2026-05-07 14:26 49.34335 28.43185 3537 ft 169 kts 282°
2026-05-07 14:26 49.34947 28.41632 3256 ft 177 kts 316°
2026-05-07 14:26 49.36096 28.41043 2947 ft 181 kts
2026-05-07 14:27 49.37235 28.41780 2927 ft 181 kts 42°
2026-05-07 14:27 49.37882 28.43337 2884 ft 170 kts 85°
2026-05-07 14:27 49.37663 28.44986 2895 ft 158 kts 128°
2026-05-07 14:27 49.36952 28.46254 2904 ft 155 kts 144°
2026-05-07 14:28 49.36106 28.47260 2895 ft 154 kts 146°
2026-05-07 14:28 49.35255 28.48253 2893 ft 154 kts 147°
2026-05-07 14:28 49.34404 28.49243 2835 ft 155 kts 146°
2026-05-07 14:28 49.33554 28.50230 2512 ft 149 kts 148°
2026-05-07 14:29 49.32743 28.51175 2210 ft 145 kts 148°
2026-05-07 14:29 49.31943 28.52103 2127 ft 143 kts 148°
2026-05-07 14:29 49.31146 28.53024 2002 ft 142 kts 147°
2026-05-07 14:29 49.30354 28.53914 1935 ft 140 kts 151°
2026-05-07 14:30 49.29527 28.54715 1721 ft 142 kts 153°
2026-05-07 14:30 49.28686 28.55504 1561 ft 141 kts 151°
2026-05-07 14:30 49.27914 28.56437 1474 ft 141 kts 143°
2026-05-07 14:30 49.27180 28.57439 1406 ft 141 kts 143°
2026-05-07 14:31 49.26449 28.58401 1338 ft 143 kts 146°
2026-05-07 14:31 49.25719 28.59396 1135 ft 144 kts 143°
2026-05-07 14:31 49.24999 28.60374 999 ft 140 kts 143°
2026-05-07 14:31 49.24364 28.61223 983 ft 94 kts 138°
2026-05-07 14:32 49.24073 28.61623 971 ft 41 kts 139°
2026-05-07 14:32 49.23870 28.61897 968 ft 37 kts 138°
2026-05-07 14:32 49.23672 28.62164 980 ft 24 kts 141°
2026-05-07 14:32 49.23609 28.62227 977 ft 6 kts 73°
2026-05-07 14:33 49.23655 28.62197 977 ft 11 kts 317°
2026-05-07 14:33 49.23762 28.62050 977 ft 30 kts 318°
2026-05-07 14:33 49.23925 28.61827 968 ft 32 kts 320°
2026-05-07 14:33 49.24088 28.61601 967 ft 32 kts 317°
2026-05-07 14:34 49.24251 28.61383 982 ft 31 kts 319°
2026-05-07 14:34 49.24415 28.61159 976 ft 32 kts 317°
2026-05-07 14:34 49.24461 28.60995 979 ft 15 kts 245°
2026-05-07 14:34 49.24393 28.60881 978 ft 0 kts 227°
2026-05-07 14:35 49.24392 28.60878 978 ft 2 kts 227°
2026-05-07 14:35 49.24360 28.60825 979 ft 9 kts 227°
2026-05-07 14:36 49.24315 28.60750 978 ft 10 kts 227°
2026-05-07 14:36 49.24269 28.60663 974 ft 9 kts 256°
2026-05-07 14:36 49.24293 28.60613 972 ft 0 kts 314°